Regional Weather Roundup
Issued by NWS

Home | Current Version | Previous Version | Text Only | Print | Product List | Glossary On
Versions: 1 2 3 4 5 6 7 8 9 10 11 12 13 14 15 16 17 18 19 20 21 22 23 24 25 26 27 28 29 30 31 32 33 34 35 36 37 38 39 40 41 42 43 44 45 46 47 48 49 50
691
ASUS46 KSEW 082310
RWRWA

WASHINGTON REGIONAL WEATHER ROUNDUP
NATIONAL WEATHER SERVICE SEATTLE WA
300 PM PST MON FEB 08 2016

NOTE:"FAIR" INDICATES FEW OR NO CLOUDS BELOW 12,000 FEET WITH NO
SIGNIFICANT WEATHER AND/OR OBSTRUCTIONS TO VISIBILITY.

WAZ505-507>509-090000-
SEATTLE, TACOMA, EVERETT, AND VICINITY

CITY           SKY/WX    TMP DP  RH WIND       PRES   REMARKS
EVERETT        SUNNY     53  42  66 N6        30.39F
BOEING FIELD   MOSUNNY   56  43  61 NW7       30.37F
RENTON         SUNNY     59  44  57 NW10      30.36F
SEATAC AIRPORT PTSUNNY   58  43  57 N6        30.37F
JBLM-MCCHORD   SUNNY     57  47  68 N8        30.36F
PUYALLUP       FAIR      59  45  58 CALM      30.36F
BREMERTON      SUNNY     57  46  67 NE10      30.40F
JBLM-FT LEWIS  MOSUNNY   57  47  70 NW6       30.35F
TACOMA NARROWS SUNNY     55  43  63 N9        30.38S
$$

WAZ001-503-506-510-514-515-090000-
NORTH INTERIOR

CITY           SKY/WX    TMP DP  RH WIND       PRES   REMARKS
BELLINGHAM     SUNNY     58  45  62 N7        30.40F
FRIDAY HARBOR  SUNNY     51  42  71 N8        30.42F
EASTSOUND      MOSUNNY   46  45  93 N6        30.42S
PORT ANGELES   SUNNY     50  42  74 E8        30.40F
EDIZ HOOK      FAIR      49  44  83 SE5       30.41F
PORT TOWNSEND  FAIR      54  45  71 VRB3      30.41S
NAS WHIDBEY    PTSUNNY   52  45  77 N9        30.44F
ARLINGTON      SUNNY     55  45  67 NW7       30.40F
BURLINGTON     SUNNY     52  45  76 NW8       30.40F
$$

WAZ020-022-039-040-504-511-512-090000-
SOUTHWEST INTERIOR

CITY           SKY/WX    TMP DP  RH WIND       PRES   REMARKS
SHELTON        SUNNY     60  45  57 N6        30.33F
OLYMPIA        SUNNY     57  42  57 N10       30.36F
CHEHALIS       FAIR      61  48  63 NW7       30.33F
KELSO          SUNNY     61  45  55 NW3       30.34F
VANCOUVER      SUNNY     60  42  51 S3        30.31F
SCAPPOOSE, OR  SUNNY     61  45  55 E3        30.31F
PORTLAND, OR   MOSUNNY   62  40  44 SE5       30.31F
$$

WAZ021-516-517-090000-
WASHINGTON COAST

CITY           SKY/WX    TMP DP  RH WIND       PRES   REMARKS
FORKS          SUNNY     69  50  50 NE6       30.29F
HOQUIAM        SUNNY     60  46  59 E18       30.28F
ASTORIA, OR    SUNNY     63  47  55 NE14      30.22F
$$

WAZ019-023-024-040-518-519-090000-
CASCADE MOUNTAINS AND COLUMBIA GORGE

CITY           SKY/WX    TMP DP  RH WIND       PRES   REMARKS
STAMPEDE PASS  NOT AVBL
TROUTDALE, OR  SUNNY     56  38  50 E25G39    30.31F
THE DALLES, OR SUNNY     55  36  48 E3        30.54F
$$

WAZ026-027-041>044-520-521-090000-
EAST SLOPES

CITY           SKY/WX    TMP DP  RH WIND       PRES   REMARKS
OMAK           CLOUDY    35  28  75 CALM      30.61F
WENATCHEE      PTSUNNY   45  28  51 CALM      30.58S
ELLENSBURG     MOSUNNY   40  28  62 CALM      30.55F
YAKIMA         SUNNY     53  32  44 W5        30.55F
$$

WAZ028-034-035-090000-
COLUMBIA BASIN

CITY           SKY/WX    TMP DP  RH WIND       PRES   REMARKS
EPHRATA        MOSUNNY   45  32  60 NW12      30.56F
MOSES LAKE     MOSUNNY   52  35  52 NW3       30.56F
PASCO          SUNNY     51  35  54 CALM      30.58F
HERMISTON, OR  SUNNY     51  35  54 NE7       30.55F
$$

WAZ036>038-090000-
NORTHEAST WASHINGTON

CITY           SKY/WX    TMP DP  RH WIND       PRES   REMARKS
SPOKANE GEIGER PTSUNNY   48  32  53 NE6       30.54F
SPOKANE FELTS  MOSUNNY   51  34  52 CALM      30.55F
FAIRCHILD AFB  MOSUNNY   46  33  60 NE6       30.53F
COEURDALENE,ID SUNNY     50  34  53 NE7       30.51F
DEER PARK      MOSUNNY   46  30  53 CALM      30.55F
$$

WAZ029>033-090000-
SOUTHEAST WASHINGTON

CITY           SKY/WX    TMP DP  RH WIND       PRES   REMARKS
PULLMAN        SUNNY     53  37  54 SE9       30.54F
LEWISTON, ID   SUNNY     54  36  50 CALM      30.53F
WALLA WALLA    SUNNY     48  36  63 CALM      30.55F
PENDLETON, OR  SUNNY     49  36  61 N7        30.53S
$$




USA.gov is the U.S. government's official web portal to all federal, state and local government web resources and services.